DW2128 Weather Reports


Display with metric or nautical units.
time (UTC)temp
F
wind
direction
speed
MPH
gust
MPH
rain 1hr
in
rain 24hr
in
rain mn
in
humidity
%
barometer
mb
20260508005021 73 221 1.0 0.0 0.00 0.00 0.00 52 1015.1
20260508004830 73 215 1.0 0.0 0.00 0.00 0.00 51 1014.9
20260508003524 75 246 0.0 0.0 0.00 0.00 0.00 49 1014.9
20260508003328 75 246 0.0 0.0 0.00 0.00 0.00 49 1014.8
20260508002024 75 285 1.0 0.0 0.00 0.00 0.00 49 1014.8
20260508001830 75 284 0.0 0.0 0.00 0.00 0.00 50 1014.6
20260508000524 76 246 1.0 0.0 0.00 0.00 0.00 45 1014.7
20260508000357 76 290 1.0 0.0 0.00 0.00 0.00 45 1014.6
20260507235030 77 261 1.0 0.0 0.00 0.00 0.00 41 1014.6
20260507234838 77 5 1.0 0.0 0.00 0.00 0.00 42 1014.6
20260507233533 77 19 1.0 0.0 0.00 0.00 0.00 40 1014.6
20260507233322 77 19 1.0 0.0 0.00 0.00 0.00 40 1014.7
20260507232051 77 345 2.0 0.0 0.00 0.00 0.00 42 1014.7
20260507231838 77 15 2.0 0.0 0.00 0.00 0.00 43 1014.7
20260507230532 77 263 0.0 0.0 0.00 0.00 0.00 44 1014.7
20260507230337 77 263 1.0 0.0 0.00 0.00 0.00 45 1014.9
20260507225034 76 22 1.0 0.0 0.00 0.00 0.00 47 1014.9
20260507224823 76 344 0.0 0.0 0.00 0.00 0.00 47 1015.1
20260507223540 77 22 2.0 0.0 0.00 0.00 0.00 43 1015.1
20260507223342 77 19 1.0 0.0 0.00 0.00 0.00 43 1015.2
20260507222036 76 233 1.0 0.0 0.00 0.00 0.00 44 1015.2
20260507221840 76 230 1.0 0.0 0.00 0.00 0.00 45 1015.2
20260507220535 76 242 1.0 0.0 0.00 0.00 0.00 46 1015.2
20260507220323 76 242 1.0 0.0 0.00 0.00 0.00 47 1015.3
20260507215037 75 23 1.0 0.0 0.00 0.00 0.00 47 1015.3
20260507214822 75 22 1.0 0.0 0.00 0.00 0.00 48 1015.5
20260507213536 73 251 2.0 0.0 0.00 0.00 0.00 52 1015.5
20260507213324 73 249 2.0 0.0 0.00 0.00 0.00 51 1015.7
20260507212034 73 304 0.0 0.0 0.00 0.00 0.00 49 1015.7
20260507211823 73 304 0.0 0.0 0.00 0.00 0.00 51 1015.9
20260507210520 72 304 1.0 0.0 0.00 0.00 0.00 53 1015.8
20260507210324 72 53 0.0 0.0 0.00 0.00 0.00 53 1016.1
20260507205058 71 28 1.0 0.0 0.00 0.00 0.00 54 1016.1
20260507204826 71 28 1.0 0.0 0.00 0.00 0.00 53 1016.2
20260507203521 70 232 1.0 0.0 0.00 0.00 0.00 55 1016.2
20260507203326 70 232 1.0 0.0 0.00 0.00 0.00 54 1016.3
20260507202020 69 25 0.0 0.0 0.00 0.00 0.00 56 1016.3
20260507201827 69 287 0.0 0.0 0.00 0.00 0.00 56 1016.5
20260507200521 68 28 0.0 0.0 0.00 0.00 0.00 58 1016.5
20260507200331 68 225 1.0 0.0 0.00 0.00 0.00 59 1016.7
20260507195024 67 26 1.0 0.0 0.00 0.00 0.00 61 1016.7
20260507194829 67 17 1.0 0.0 0.00 0.00 0.00 61 1016.9
20260507193526 67 329 0.0 0.0 0.00 0.00 0.00 63 1016.9
20260507193331 66 340 0.0 0.0 0.00 0.00 0.00 63 1017.1
20260507192025 67 19 1.0 0.0 0.00 0.00 0.00 61 1017.2
20260507191816 66 319 1.0 0.0 0.00 0.00 0.00 63 1017.2
20260507190537 66 5 1.0 0.0 0.00 0.00 0.00 65 1017.2
20260507190322 66 244 1.0 0.0 0.00 0.00 0.00 63 1017.4
20260507185036 64 19 2.0 0.0 0.00 0.00 0.00 67 1017.4
20260507184824 64 19 2.0 0.0 0.00 0.00 0.00 66 1017.5
20260507183519 63 297 1.0 0.0 0.00 0.00 0.00 69 1017.5
20260507183323 63 9 1.0 0.0 0.00 0.00 0.00 70 1017.6
20260507182056 62 246 1.0 0.0 0.00 0.00 0.00 72 1017.6
20260507181839 62 346 1.0 0.0 0.00 0.00 0.00 72 1017.5
20260507180533 62 246 1.0 0.0 0.00 0.00 0.00 74 1017.5
20260507180322 61 244 1.0 0.0 0.00 0.00 0.00 73 1017.5
20260507175035 60 355 0.0 0.0 0.00 0.00 0.00 75 1017.4
20260507174840 60 267 0.0 0.0 0.00 0.00 0.00 76 1017.4
20260507173534 59 263 0.0 0.0 0.00 0.00 0.00 79 1017.4
20260507173338 59 263 0.0 0.0 0.00 0.00 0.00 79 1017.4
20260507172034 59 340 0.0 0.0 0.00 0.00 0.00 79 1017.4
20260507171823 59 340 0.0 0.0 0.00 0.00 0.00 79 1017.5
20260507170538 58 338 0.0 0.0 0.00 0.00 0.00 80 1017.5
20260507170323 58 338 0.0 0.0 0.00 0.00 0.00 81 1017.6
20260507165038 58 338 0.0 0.0 0.00 0.00 0.00 81 1017.6
20260507164827 58 338 0.0 0.0 0.00 0.00 0.00 82 1017.7
20260507163541 58 338 0.0 0.0 0.00 0.00 0.00 82 1017.7
20260507163323 57 338 0.0 0.0 0.00 0.00 0.00 82 1017.7
20260507162037 57 338 0.0 0.0 0.00 0.00 0.00 83 1017.7
20260507161822 57 338 0.0 0.0 0.00 0.00 0.00 83 1017.7
20260507160536 57 338 0.0 0.0 0.00 0.00 0.00 83 1017.7
20260507160323 57 338 0.0 0.0 0.00 0.00 0.00 83 1017.6
20260507155019 57 339 0.0 0.0 0.00 0.00 0.00 83 1017.6
20260507154844 57 338 0.0 0.0 0.00 0.00 0.00 83 1017.5
20260507153536 57 339 0.0 0.0 0.00 0.00 0.00 84 1017.5
20260507153322 57 339 0.0 0.0 0.00 0.00 0.00 84 1017.6
20260507152035 57 339 0.0 0.0 0.00 0.00 0.00 84 1017.6
20260507151824 57 339 0.0 0.0 0.00 0.00 0.00 84 1017.6
20260507150537 57 339 0.0 0.0 0.00 0.00 0.00 84 1017.6
20260507150322 57 339 0.0 0.0 0.00 0.00 0.00 84 1017.6
20260507145036 57 339 0.0 0.0 0.00 0.00 0.00 84 1017.6
20260507144900 57 339 0.0 0.0 0.00 0.00 0.00 84 1017.5
20260507143533 56 339 0.0 0.0 0.00 0.00 0.00 84 1017.5
20260507143322 56 339 0.0 0.0 0.00 0.00 0.00 84 1017.3
20260507142036 56 339 0.0 0.0 0.00 0.00 0.00 84 1017.3
20260507141840 56 339 0.0 0.0 0.00 0.00 0.00 84 1017.2
20260507140556 56 339 0.0 0.0 0.00 0.00 0.00 84 1017.2
20260507140323 56 339 0.0 0.0 0.00 0.00 0.00 84 1017.2
20260507135017 56 339 0.0 0.0 0.00 0.00 0.00 84 1017.2
20260507134825 56 339 0.0 0.0 0.00 0.00 0.00 84 1017.2
20260507133559 56 339 0.0 0.0 0.00 0.00 0.00 84 1017.2
20260507133322 56 339 0.0 0.0 0.00 0.00 0.00 84 1017.0
20260507132059 56 339 0.0 0.0 0.00 0.00 0.00 84 1017.0
20260507131827 56 339 0.0 0.0 0.00 0.00 0.00 84 1016.8
20260507130521 56 339 0.0 0.0 0.00 0.00 0.00 84 1016.8
20260507130325 56 339 0.0 0.0 0.00 0.00 0.00 84 1016.7
20260507125019 56 339 0.0 0.0 0.00 0.00 0.00 84 1016.7
20260507124823 56 339 0.0 0.0 0.00 0.00 0.00 84 1016.8
20260507123537 56 339 0.0 0.0 0.00 0.00 0.00 84 1016.8
20260507123346 56 339 0.0 0.0 0.00 0.00 0.00 84 1016.9
20260507122019 56 339 0.0 0.0 0.00 0.00 0.00 84 1016.9
20260507121826 56 339 0.0 0.0 0.00 0.00 0.00 84 1017.0
20260507120521 56 339 0.0 0.0 0.00 0.00 0.00 84 1017.0
20260507120326 56 339 0.0 0.0 0.00 0.00 0.00 84 1017.2
20260507115023 56 339 0.0 0.0 0.00 0.00 0.00 84 1017.2
20260507114832 56 339 0.0 0.0 0.00 0.00 0.00 84 1017.2
20260507113527 56 339 0.0 0.0 0.00 0.00 0.00 84 1017.2
20260507113336 56 339 0.0 0.0 0.00 0.00 0.00 84 1017.2
20260507112029 57 339 0.0 0.0 0.00 0.00 0.00 84 1017.2
20260507111854 57 339 0.0 0.0 0.00 0.00 0.00 84 1017.2
20260507110531 56 339 0.0 0.0 0.00 0.00 0.00 83 1017.2
20260507110322 57 339 0.0 0.0 0.00 0.00 0.00 83 1017.2
20260507105055 57 339 0.0 0.0 0.00 0.00 0.00 83 1017.2
20260507104838 57 339 0.0 0.0 0.00 0.00 0.00 83 1017.2
20260507103532 57 339 0.0 0.0 0.00 0.00 0.00 83 1017.2
20260507103357 57 339 0.0 0.0 0.00 0.00 0.00 83 1017.2
20260507102032 57 339 0.0 0.0 0.00 0.00 0.00 82 1017.2
20260507101821 57 339 0.0 0.0 0.00 0.00 0.00 82 1017.2
20260507100522 57 339 0.0 0.0 0.00 0.00 0.00 82 1017.2
20260507100347 57 339 0.0 0.0 0.00 0.00 0.00 82 1017.2
20260507095100 57 339 0.0 0.0 0.00 0.00 0.00 82 1017.2
20260507094821 57 339 0.0 0.0 0.00 0.00 0.00 82 1017.3
20260507093537 57 339 0.0 0.0 0.00 0.00 0.00 82 1017.3
20260507093326 57 339 0.0 0.0 0.00 0.00 0.00 82 1017.4
20260507092040 57 339 0.0 0.0 0.00 0.00 0.00 82 1017.4
20260507091821 57 339 0.0 0.0 0.00 0.00 0.00 82 1017.7
20260507090519 57 339 0.0 0.0 0.00 0.00 0.00 82 1017.7
20260507090328 57 339 0.0 0.0 0.00 0.00 0.00 82 1017.7
20260507085023 57 338 0.0 0.0 0.00 0.00 0.00 82 1017.7
20260507084831 57 339 0.0 0.0 0.00 0.00 0.00 82 1017.8
20260507083525 57 338 0.0 0.0 0.00 0.00 0.00 82 1017.8
20260507083329 57 338 0.0 0.0 0.00 0.00 0.00 82 1017.8
20260507082027 57 339 0.0 0.0 0.00 0.00 0.00 82 1017.8
20260507081819 57 339 0.0 0.0 0.00 0.00 0.00 82 1017.8
20260507080535 57 339 0.0 0.0 0.00 0.00 0.00 82 1017.8
20260507080323 57 339 0.0 0.0 0.00 0.00 0.00 82 1017.8
20260507075037 57 339 0.0 0.0 0.00 0.00 0.00 81 1017.8
20260507074825 57 339 0.0 0.0 0.00 0.00 0.00 81 1017.8
20260507073539 57 339 0.0 0.0 0.00 0.00 0.00 82 1017.8
20260507073346 57 339 0.0 0.0 0.00 0.00 0.00 82 1017.9
20260507072019 57 339 0.0 0.0 0.00 0.00 0.00 82 1017.9
20260507071846 57 339 0.0 0.0 0.00 0.00 0.00 82 1017.9
20260507070519 57 339 0.0 0.0 0.00 0.00 0.00 82 1017.9
20260507070343 57 339 0.0 0.0 0.00 0.00 0.00 82 1017.9
20260507065059 57 339 0.0 0.0 0.00 0.00 0.00 82 1017.9
20260507064827 57 338 0.0 0.0 0.00 0.00 0.00 82 1018.0
20260507063541 57 339 0.0 0.0 0.00 0.00 0.00 82 1018.0
20260507063322 57 339 0.0 0.0 0.00 0.00 0.00 82 1018.1
20260507062057 57 339 0.0 0.0 0.00 0.00 0.00 82 1018.1
20260507061820 57 338 0.0 0.0 0.00 0.00 0.00 82 1018.2
20260507060328 57 338 0.0 0.0 0.00 0.00 0.00 82 1018.1
20260507055022 57 338 0.0 0.0 0.00 0.00 0.00 81 1018.1
20260507054827 57 339 0.0 0.0 0.00 0.00 0.00 81 1018.2
20260507053520 58 339 0.0 0.0 0.00 0.00 0.00 80 1018.2
20260507053328 58 339 0.0 0.0 0.00 0.00 0.00 79 1018.3
20260507052021 58 339 0.0 0.0 0.00 0.00 0.00 79 1018.3
20260507051826 58 339 0.0 0.0 0.00 0.00 0.00 79 1018.3
20260507050523 59 338 0.0 0.0 0.00 0.00 0.00 78 1018.3
20260507050327 59 339 0.0 0.0 0.00 0.00 0.00 78 1018.3
20260507045023 59 338 0.0 0.0 0.00 0.00 0.00 78 1018.3
20260507044853 59 339 0.0 0.0 0.00 0.00 0.00 77 1018.2
20260507043525 60 339 0.0 0.0 0.00 0.00 0.00 76 1018.3
20260507043331 60 339 0.0 0.0 0.00 0.00 0.00 76 1018.1
20260507042025 60 338 0.0 0.0 0.00 0.00 0.00 75 1018.1
20260507041849 60 339 0.0 0.0 0.00 0.00 0.00 75 1017.9
20260507040521 61 338 0.0 0.0 0.00 0.00 0.00 73 1017.9
20260507040350 61 338 0.0 0.0 0.00 0.00 0.00 73 1017.7
20260507035023 62 339 0.0 0.0 0.00 0.00 0.00 72 1017.7
20260507034828 62 339 0.0 0.0 0.00 0.00 0.00 71 1017.5
20260507033523 63 339 0.0 0.0 0.00 0.00 0.00 70 1017.5
20260507033329 63 339 0.0 0.0 0.00 0.00 0.00 70 1017.2
20260507032023 63 338 0.0 0.0 0.00 0.00 0.00 69 1017.2
20260507031855 64 338 0.0 0.0 0.00 0.00 0.00 69 1017.1
20260507030547 65 328 0.0 0.0 0.00 0.00 0.00 66 1017.1
20260507030351 65 328 0.0 0.0 0.00 0.00 0.00 65 1016.7
20260507025023 66 254 0.0 0.0 0.00 0.00 0.00 62 1016.8
20260507024829 66 254 0.0 0.0 0.00 0.00 0.00 62 1016.7
20260507023526 68 308 0.0 0.0 0.00 0.00 0.00 58 1016.7
20260507023335 68 310 0.0 0.0 0.00 0.00 0.00 57 1016.5
20260507022030 69 312 0.0 0.0 0.00 0.00 0.00 55 1016.5
20260507021835 69 312 0.0 0.0 0.00 0.00 0.00 55 1016.4
20260507020529 70 244 0.0 0.0 0.00 0.00 0.00 53 1016.4
20260507020335 70 242 0.0 0.0 0.00 0.00 0.00 53 1016.3
20260507015029 72 308 0.0 0.0 0.00 0.00 0.00 51 1016.3
20260507014839 72 308 1.0 0.0 0.00 0.00 0.00 50 1016.2
20260507013533 73 5 0.0 0.0 0.00 0.00 0.00 49 1016.2
20260507013338 74 5 0.0 0.0 0.00 0.00 0.00 48 1016.2
20260507012051 74 329 0.0 0.0 0.00 0.00 0.00 46 1016.2
20260507011839 74 259 0.0 0.0 0.00 0.00 0.00 47 1016.2
20260507010528 74 15 0.0 0.0 0.00 0.00 0.00 46 1016.2
20260507010320 74 317 1.0 0.0 0.00 0.00 0.00 46 1016.2